Location: Asheville, NC
(35.6000°N, 82.5500°W)
Time: 16:22:29
(UTC-05:00)

ISS - Pass Details

Date: 13 February 2018
Orbit: 403 x 407 km, 51.6° (Epoch: 22 February)

Event Time Altitude Azimuth Distance (km) Brightness Sun altitude
Rises 19:29:07 0° 300° (WNW) 2,312 1.0 -16.6°
Reaches altitude 10° 19:31:25 10° 287° (WNW) 1,450 0.1 -17.1°
Maximum altitude 19:34:09 25° 229° (SW) 847 -1.6 -17.6°
Drops below altitude 10° 19:36:53 10° 171° (S) 1,444 -1.1 -18.2°
Enters shadow 19:37:19 - 168° (SSE) 1,597 -0.9 -18.3°
